CST,Max TemperatureF,Mean TemperatureF,Min TemperatureF,Max Dew PointF,MeanDew PointF,Min DewpointF,Max Humidity, Mean Humidity, Min Humidity, Max Sea Level PressureIn, Mean Sea Level PressureIn, Min Sea Level PressureIn, Max VisibilityMiles, Mean VisibilityMiles, Min VisibilityMiles, Max Wind SpeedMPH, Mean Wind SpeedMPH, Max Gust SpeedMPH,PrecipitationIn, CloudCover, Events, WindDirDegrees
2013-12-1,35,28,20,25,21,17,92,78,64,30.21,30.10,29.90,8,6,5,10,6,13,0.00,4,,68
2013-12-2,47,36,24,36,30,24,100,83,65,29.88,29.65,29.53,7,5,2,21,11,25,T,3,,158
2013-12-3,36,32,27,35,32,26,100,93,85,29.75,29.63,29.54,5,2,0,16,11,20,0.06,7,Fog-Rain,359
2013-12-4,33,22,10,33,26,4,100,88,76,29.91,29.64,29.51,10,5,0,33,14,40,0.00,7,Fog,319
2013-12-5,11,6,0,4,0,-8,83,75,66,30.45,30.17,29.88,10,10,8,29,20,35,0.00,3,,286
2013-12-6,5,0,-6,-4,-9,-12,79,74,68,30.75,30.60,30.45,10,10,10,18,13,22,0.00,0,,303
2013-12-7,10,0,-10,2,-6,-15,83,70,57,30.79,30.69,30.48,10,9,2,10,6,13,T,2,Snow,292
2013-12-8,15,8,0,11,7,0,92,84,76,30.51,30.18,30.01,10,3,1,18,10,21,T,8,Snow,134
2013-12-9,10,2,-7,3,-6,-13,95,79,62,30.26,30.16,29.95,10,10,8,22,15,28,0.00,1,,253
2013-12-10,19,11,3,14,9,-3,92,79,66,30.32,30.11,29.86,10,5,1,33,15,42,0.05,6,Snow,262
2013-12-11,16,2,-12,11,-5,-15,87,76,65,30.66,30.47,30.25,10,7,1,29,13,36,T,3,Snow,302
2013-12-12,25,16,6,18,11,1,92,80,68,30.35,30.27,30.12,10,10,7,30,9,37,0.00,2,,215
2013-12-13,24,14,3,18,12,3,96,88,80,30.23,30.12,30.02,10,7,5,22,13,26,0.00,3,,37
2013-12-14,15,10,5,9,7,1,84,79,73,30.26,30.18,30.10,10,8,2,20,12,22,T,7,Snow,333
2013-12-15,8,6,3,4,1,-4,88,80,72,30.19,30.09,30.02,10,5,1,16,8,20,0.03,8,Snow,46
2013-12-16,29,19,8,20,11,4,92,86,80,30.11,30.03,29.93,10,8,4,18,11,22,0.00,6,,214
2013-12-17,32,23,13,26,19,11,85,77,68,30.19,30.13,30.06,10,10,10,30,18,37,0.00,1,,283
2013-12-18,40,26,11,31,23,8,92,81,70,30.09,29.82,29.71,10,10,10,21,11,24,0.00,0,,213
2013-12-19,30,22,14,25,14,11,92,86,80,30.01,29.94,29.84,10,9,6,26,18,33,0.00,5,,12
2013-12-20,16,12,8,13,11,6,96,88,80,30.01,29.94,29.87,10,9,6,21,11,24,0.00,8,,343
2013-12-21,21,14,7,17,12,6,92,88,83,29.97,29.90,29.81,10,7,4,24,10,27,0.00,8,,15
2013-12-22,14,6,-2,12,4,-8,96,85,73,30.39,30.12,29.88,10,9,6,23,16,29,T,5,Snow,327
2013-12-23,2,-5,-12,-9,-14,-17,79,65,51,30.61,30.54,30.40,10,10,10,24,16,29,0.00,0,,302
2013-12-24,17,2,-14,13,-1,-19,88,76,63,30.56,30.26,30.10,10,6,1,28,14,35,T,6,Snow,176
2013-12-25,31,22,12,27,19,10,92,82,71,30.25,30.13,30.05,10,6,0,23,12,28,T,7,Fog-Snow,260
2013-12-26,35,26,17,27,21,15,92,81,70,30.22,30.14,30.07,10,10,10,14,8,15,0.00,4,,250
2013-12-27,42,28,13,32,25,11,96,79,62,30.22,30.10,30.02,10,10,10,28,12,34,0.00,0,,233
2013-12-28,51,29,7,36,24,3,92,72,52,30.10,29.88,29.68,10,8,2,37,17,46,T,3,Snow,248
2013-12-29,7,-1,-9,2,-11,-17,88,70,51,30.43,30.31,30.06,10,10,4,38,19,47,T,2,,323
2013-12-30,10,1,-8,5,-1,-13,91,78,65,30.34,30.17,30.03,10,4,1,18,9,21,T,7,Snow,158
2013-12-31,3,-1,-5,0,-3,-9,87,83,79,30.38,30.26,30.19,10,4,1,15,10,20,0.03,8,Snow,41